Weather History for Key West NAF, FL

Change the Weather History Date:

Friday, October 5, 2012

  Actual Average Record
Temperature  
Mean Temperature 84 °F -  
Max Temperature 90 °F 86 °F 93 °F (1962)
Min Temperature 80 °F 77 °F 71 °F (1957)
Cooling Degree Days 20    
Growing Degree Days 34 (Base 50)    
Moisture  
Dew Point 75 °F    
Average Humidity 76    
Maximum Humidity 89    
Minimum Humidity 59    
Precipitation  
Precipitation 0.02 in - - ()
Sea Level Pressure  
Sea Level Pressure 30.00 in    
Wind  
Wind Speed 9 mph (East)    
Max Wind Speed 17 mph    
Max Gust Speed 18 mph    
Visibility 10 miles    
Events      
Averages and records for this station are not official NWS values.
T = Trace of Precipitation, MM = Missing Value Source: NWS Daily Summary

Daily Weather History Graph

Daily Weather History Graph

Search for Another Location

Airport:

Trip Planner

Search our weather history database for the weather conditions in past years. The results will help you decide how hot, cold, wet, or windy it might be!

Date:

Astronomy

Oct. 05, 2012 Rise Set
Actual Time 7:20 AM EDT 7:09 PM EDT
Civil Twilight 6:57 AM EDT 7:31 PM EDT
Nautical Twilight 6:31 AM EDT 7:58 PM EDT
Astronomical Twilight 6:04 AM EDT 8:24 PM EDT
Moon 11:00 PM EDT (10/5) 11:58 AM EDT (10/5)
Length of Visible Light 12h 34m
Length of Day
11h 48m
Waning Gibbous, 74% of the Moon is Illuminated
Oct 5
Waning Gibbous
Oct 8
Last Quarter
Oct 15
New
Oct 21
First Quarter
Oct 29
Full

Hourly Weather History & Observations

Time (EDT) Temp. Heat Index Dew Point Humidity Pressure Visibility Wind Dir Wind Speed Gust Speed Precip Events Conditions
12:53 AM 81.0 °F 86.7 °F 75.0 °F 82% 30.06 in 10.0 mi NE 5.8 mph - N/A   Clear
1:28 AM 80.6 °F 87.1 °F 77.0 °F 89% 30.06 in 10.0 mi NE 5.8 mph - N/A   Mostly Cloudy
1:38 AM 80.6 °F 87.1 °F 77.0 °F 89% 30.06 in 10.0 mi NE 6.9 mph - N/A   Scattered Clouds
1:53 AM 81.0 °F 87.3 °F 75.9 °F 85% 30.06 in 10.0 mi NE 5.8 mph - N/A   Clear
2:53 AM 82.9 °F 90.8 °F 75.9 °F 79% 30.03 in 10.0 mi ENE 10.4 mph - N/A   Clear
3:53 AM 81.0 °F 87.3 °F 75.9 °F 85% 30.02 in 10.0 mi East 6.9 mph - N/A   Partly Cloudy
4:53 AM 82.9 °F 91.8 °F 77.0 °F 82% 30.01 in 10.0 mi ENE 9.2 mph - N/A   Partly Cloudy
5:53 AM 81.0 °F 86.7 °F 75.0 °F 82% 30.01 in 10.0 mi East 8.1 mph - N/A   Clear
5:57 AM 80.6 °F 86.2 °F 75.2 °F 84% 30.01 in 10.0 mi East 9.2 mph - N/A   Scattered Clouds
6:53 AM 80.1 °F 85.4 °F 75.9 °F 87% 30.02 in 10.0 mi East 9.2 mph - N/A   Scattered Clouds
7:53 AM 82.0 °F 87.9 °F 73.9 °F 76% 30.02 in 10.0 mi East 11.5 mph - N/A   Scattered Clouds
8:53 AM 86.0 °F 95.1 °F 75.0 °F 70% 30.02 in 10.0 mi East 9.2 mph - N/A   Scattered Clouds
9:53 AM 88.0 °F 98.5 °F 75.9 °F 67% 30.03 in 10.0 mi East 10.4 mph - N/A   Scattered Clouds
10:53 AM 88.0 °F 96.5 °F 73.9 °F 63% 30.03 in 10.0 mi East 13.8 mph - N/A   Scattered Clouds
11:53 AM 88.0 °F 98.5 °F 75.9 °F 67% 30.03 in 10.0 mi East 13.8 mph - N/A   Scattered Clouds
12:53 PM 89.1 °F 97.0 °F 73.0 °F 59% 30.00 in 10.0 mi East 17.3 mph - N/A   Scattered Clouds
1:53 PM 89.1 °F 99.1 °F 75.0 °F 63% 29.99 in 10.0 mi East 10.4 mph - N/A   Scattered Clouds
2:53 PM 88.0 °F 98.5 °F 75.9 °F 67% 29.96 in 10.0 mi East 10.4 mph - N/A   Mostly Cloudy
3:53 PM 88.0 °F 97.5 °F 75.0 °F 65% 29.94 in 10.0 mi East 11.5 mph - N/A   Mostly Cloudy
4:53 PM 86.0 °F 95.1 °F 75.0 °F 70% 29.92 in 10.0 mi East 10.4 mph - N/A   Mostly Cloudy
5:53 PM 84.9 °F 92.1 °F 73.9 °F 69% 29.92 in 10.0 mi ESE 8.1 mph - N/A   Mostly Cloudy
6:53 PM 82.9 °F 89.4 °F 73.9 °F 74% 29.93 in 10.0 mi East 9.2 mph - N/A   Mostly Cloudy
7:53 PM 82.9 °F 90.2 °F 75.0 °F 77% 29.93 in 10.0 mi East 9.2 mph - N/A   Scattered Clouds
8:53 PM 82.9 °F 90.2 °F 75.0 °F 77% 29.96 in 10.0 mi East 10.4 mph - N/A   Scattered Clouds
9:53 PM 82.9 °F 90.8 °F 75.9 °F 79% 29.97 in 10.0 mi East 6.9 mph 18.4 mph N/A   Scattered Clouds
10:53 PM 82.9 °F 90.8 °F 75.9 °F 79% 29.99 in 10.0 mi ENE 8.1 mph - N/A   Partly Cloudy
11:53 PM 82.9 °F 89.4 °F 73.9 °F 74% 29.98 in 10.0 mi East 11.5 mph - N/A   Mostly Cloudy